COSMOS 249 DEB, 18602

Orbit data source: Space-Track

COSMOS 249 DEB, 18602 is space debris in LEO originally from a launch on Sun, 20 Oct 1968 UTC launched from the Tyuratam Missile And Space Complex (TTMTR). Debris objects in space refer to the collection of defunct objects orbiting the Earth. Examples of debris include non-operational satellites, rocket bodies, and fragments generated from explosions, collisions, or faulty payload assembly.

Loading next visibility...
Identifier
18602, 1968-091DG
Orbit
LEO
Country
Flag of CISCIS
Related business
Manufacturer
Unknown
Mission
Spacecraft
Bus & Motor
Unknown
Mass
Unknown
Launch date (UTC)
1968-10-20 (57 years ago)
Launch vehicle
Unknown
Launch site
Tyuratam Missile And Space Complex (TTMTR)
Object type
Payload
Rocket body
Debris
Shape & HBR
Unknown shape, 0.1 m
Radar Cross Section
Small (<0.1 m²)

Expand to show TLE details & history
Last TLE update: 13 hours ago

TLE from 13 hours ago
0 COSMOS 249 DEB
1 18602U 68091DG  25288.43187642  .00004735  00000-0  50395-2 0  9994
2 18602  62.2343  83.7968 0646218 196.6393 194.0051 13.08524759613468
Epoch: 2025-10-15T10:21Z
TLE epoch observation values (Epoch: 2025-10-15T10:21:54.122Z)
Latitude
25.43264°
Longitude
-81.45587°
Altitude
1,709.398 km
Speed
6.8 km/s
True Right ascension
06h 32m 54s
True Declination
25° 18' 55"
Sunlit
Object was in daylight at epoch
Visualization orbit readout
Latitude
Unknown
Longitude
Unknown
Altitude
Unknown
Speed
Unknown
Apparent Right ascension
Unknown
Apparent Declination
Unknown
Sunlit
N/A
Visualization observer readout
Local Sidereal Time
17:40:30
Azimuth
Unknown
Elevation
Unknown
Doppler factor
Unknown
Orbital elements
Apogee altitude
1,719.373 km
Perigee altitude
736.346 km
Semi-major axis
7,605.996 km
Eccentricity
0.06462
Inclination
62.2343°
RAAN
83.7968°
Arg. of periapsis
196.6393°
True anomaly
192.34382°
Mean anomaly
194.0051°
Eccentric anomaly
193.16201°
Mean motion
3.27197 °/min
Orbital period
110.03 mins
BSTAR
0.0050395
Loading maneuver chart data...
Computing Atmospheric mass density...

Documentation

Showing up to 5 results
|